Iowa City, IA

2:47 AM CDT on April 20, 2018 (GMT -0500)
Iowa City Municipal

Weather History for KIOW - October, 2013

Change the Weather History Date:

Saturday, October 26, 2013

  Actual Average Record
Temperature  
Mean Temperature 43 °F 48 °F  
Max Temperature 53 °F 58 °F 82 °F (1955)
Min Temperature 33 °F 38 °F 17 °F (1962)
Degree Days  
Heating Degree Days 22 17  
Month to date heating degree days 343 324  
Since 1 July heating degree days 409 436  
Cooling Degree Days 0 0  
Month to date cooling degree days 23 10  
Year to date cooling degree days 1064 912  
Moisture  
Dew Point 28 °F    
Average Humidity 60    
Maximum Humidity 82    
Minimum Humidity 38    
Precipitation  
Precipitation 0.00 in 0.10 in 1.25 in (1986)
Month to date precipitation 1.77 2.40  
Year to date precipitation 31.96 31.94  
Sea Level Pressure  
Sea Level Pressure 30.06 in    
Wind  
Wind Speed 10 mph (WNW)    
Max Wind Speed 23 mph    
Max Gust Speed 31 mph    
Visibility 10 miles    
Events      
T = Trace of Precipitation, MM = Missing Value Source: NWS Daily Summary

Daily Weather History Graph

Daily Weather History Graph

Search for Another Location

Airport or City:

Astronomy

Oct. 26, 2013 Rise Set
Actual Time 7:31 AM CDT 6:08 PM CDT
Civil Twilight 7:02 AM CDT 6:36 PM CDT
Nautical Twilight 6:30 AM CDT 7:09 PM CDT
Astronomical Twilight 5:58 AM CDT 7:41 PM CDT
Moon No Moon Rise 1:48 PM CDT (10/26)
Length of Visible Light 11h 34m
Length of Day
10h 37m
Waning Gibbous, 53% of the Moon is Illuminated
Oct 26
Waning Gibbous
Oct 26
Last Quarter
Nov 3
New
Nov 9
First Quarter
Nov 17
Full

Hourly Weather History & Observations

Time (CDT) Temp. Windchill Dew Point Humidity Pressure Visibility Wind Dir Wind Speed Gust Speed Precip Events Conditions
12:52 AM 43.0 °F 37.2 °F 26.1 °F 51% 30.04 in 10.0 mi SSW 10.4 mph - N/A   Clear
1:52 AM 43.0 °F 37.2 °F 26.1 °F 51% 30.01 in 10.0 mi SSW 10.4 mph - N/A   Clear
2:52 AM 42.1 °F 37.1 °F 27.0 °F 55% 29.98 in 10.0 mi SSW 8.1 mph - N/A   Clear
3:52 AM 39.9 °F 35.8 °F 27.0 °F 60% 29.95 in 10.0 mi SW 5.8 mph - N/A   Clear
4:52 AM 42.1 °F 37.1 °F 28.9 °F 60% 29.95 in 10.0 mi WSW 8.1 mph - N/A   Clear
5:52 AM 41.0 °F 38.0 °F 30.0 °F 65% 29.96 in 10.0 mi West 4.6 mph - N/A   Clear
6:52 AM 41.0 °F 35.2 °F 32.0 °F 70% 29.96 in 10.0 mi West 9.2 mph - N/A   Partly Cloudy
7:52 AM 41.0 °F 35.2 °F 32.0 °F 70% 29.98 in 10.0 mi West 9.2 mph - N/A   Clear
8:52 AM 46.0 °F 39.9 °F 34.0 °F 63% 30.01 in 10.0 mi NW 13.8 mph 21.9 mph N/A   Clear
9:52 AM 46.9 °F - 32.0 °F 56% 30.02 in 10.0 mi NW 18.4 mph 25.3 mph N/A   Clear
10:52 AM 46.9 °F - 28.0 °F 48% 30.05 in 10.0 mi NW 20.7 mph 29.9 mph N/A   Clear
11:52 AM 46.9 °F - 30.0 °F 52% 30.08 in 10.0 mi NW 18.4 mph 26.5 mph N/A   Clear
12:52 PM 48.0 °F - 28.9 °F 48% 30.08 in 10.0 mi NW 16.1 mph 26.5 mph N/A   Clear
1:52 PM 51.1 °F - 28.9 °F 43% 30.09 in 10.0 mi WNW 19.6 mph 28.8 mph N/A   Clear
2:52 PM 52.0 °F - 28.9 °F 41% 30.09 in 10.0 mi NW 10.4 mph 26.5 mph N/A   Clear
3:52 PM 52.0 °F - 27.0 °F 38% 30.10 in 10.0 mi NW 16.1 mph 26.5 mph N/A   Clear
4:52 PM 52.0 °F - 26.1 °F 37% 30.10 in 10.0 mi NW 11.5 mph - N/A   Clear
5:52 PM 50.0 °F - 26.1 °F 39% 30.11 in 10.0 mi NNW 10.4 mph - N/A   Clear
6:52 PM 45.0 °F 42.6 °F 27.0 °F 49% 30.13 in 10.0 mi WNW 4.6 mph - N/A   Clear
7:52 PM 37.0 °F 33.3 °F 28.0 °F 70% 30.14 in 10.0 mi West 4.6 mph - N/A   Clear
8:52 PM 34.0 °F 28.8 °F 28.0 °F 79% 30.15 in 10.0 mi West 5.8 mph - N/A   Clear
9:52 PM 34.0 °F - 27.0 °F 75% 30.16 in 10.0 mi Calm Calm - N/A   Clear
10:52 PM 35.1 °F - 27.0 °F 72% 30.17 in 10.0 mi Calm Calm - N/A   Clear
11:52 PM 35.1 °F - 27.0 °F 72% 30.15 in 10.0 mi Calm Calm - N/A   Clear